Western Head, Nova Scotia

9:09 PM AST on November 24, 2017 (GMT -0400)
Western Head

Weather History for CWWE - October, 2012

Change the Weather History Date:

Wednesday, October 3, 2012

  Actual Average Record
Temperature  
Mean Temperature 64 °F -  
Max Temperature 75 °F - - ()
Min Temperature 54 °F - - ()
Growing Degree Days 14 (Base 50)    
Moisture  
Dew Point 55 °F    
Average Humidity 78    
Maximum Humidity 96    
Minimum Humidity 44    
Precipitation  
Precipitation 0.00 in - - ()
Sea Level Pressure  
Sea Level Pressure 30.08 in    
Wind  
Wind Speed 6 mph ()    
Max Wind Speed 12 mph    
Max Gust Speed -    
T = Trace of Precipitation, MM = Missing Value Source: Averaged Metar Reports

Daily Weather History Graph

Daily Weather History Graph

Search for Another Location

Airport or City:

Trip Planner

Search our weather history database for the weather conditions in past years. The results will help you decide how hot, cold, wet, or windy it might be!

Date:

Astronomy

Oct. 03, 2012 Rise Set
Actual Time 7:19 AM ADT 6:55 PM ADT
Civil Twilight 6:50 AM ADT 7:23 PM ADT
Nautical Twilight 6:16 AM ADT 7:57 PM ADT
Astronomical Twilight 5:43 AM ADT 8:30 PM ADT
Moon 8:35 PM ADT (10/3) 10:46 AM ADT (10/3)
Length of Visible Light 12h 33m
Length of Day
11h 35m
Waning Gibbous, 89% of the Moon is Illuminated
Oct 3
Waning Gibbous
Oct 8
Last Quarter
Oct 15
New
Oct 22
First Quarter
Oct 29
Full

Hourly Weather History & Observations

Time (ADT) Temp. Dew Point Humidity Pressure Visibility Wind Dir Wind Speed Gust Speed Precip Events Conditions
12:00 AM 58 °F 54 °F 82% 30.03 in - West 5.8 mph - -  
12:00 AM 58.1 °F 54.0 °F 86% 30.03 in - West 5.8 mph - N/A   Unknown
1:00 AM 55.6 °F 53.4 °F 92% 30.04 in - WSW 8.1 mph - N/A   Unknown
2:00 AM 55.4 °F 53.8 °F 94% 30.04 in - WSW 6.9 mph - N/A   Unknown
3:00 AM 56 °F 54 °F 90% 30.03 in - WSW 8.1 mph - -  
3:00 AM 55.6 °F 54.0 °F 94% 30.03 in - WSW 8.1 mph - N/A   Unknown
4:00 AM 55.2 °F 54.1 °F 96% 30.04 in - WSW 6.9 mph - N/A   Unknown
5:00 AM 57.0 °F 55.4 °F 94% 30.04 in - West 5.8 mph - N/A   Unknown
6:00 AM 58 °F 56 °F 90% 30.05 in - WNW 5.8 mph - -  
6:00 AM 58.1 °F 55.9 °F 93% 30.05 in - WNW 5.8 mph - N/A   Unknown
7:00 AM 56.8 °F 55.0 °F 94% 30.06 in - WNW 8.1 mph - N/A   Unknown
8:00 AM 57.4 °F 55.2 °F 92% 30.07 in - NW 10.4 mph - N/A   Unknown
9:00 AM 61 °F 56 °F 80% 30.08 in - NW 11.5 mph - -  
9:00 AM 60.8 °F 56.3 °F 85% 30.08 in - NW 11.5 mph - N/A   Unknown
10:00 AM 64.9 °F 56.8 °F 75% 30.09 in - NNW 9.2 mph - N/A   Unknown
11:00 AM 69.6 °F 57.4 °F 65% 30.09 in - NW 5.8 mph - N/A   Unknown
12:00 PM 67 °F 56 °F 59% 30.09 in - SSE 4.6 mph - -  
12:00 PM 66.6 °F 55.9 °F 69% 30.09 in - SSE 4.6 mph - N/A   Unknown
1:00 PM 69.6 °F 57.4 °F 65% 30.07 in - SSW 3.5 mph - N/A   Unknown
2:00 PM 67.6 °F 58.1 °F 71% 30.07 in - SSE 4.6 mph - N/A   Unknown
3:00 PM 65 °F 58 °F 71% 30.08 in - SSW 6.9 mph - -  
3:00 PM 64.9 °F 57.7 °F 77% 30.08 in - SSW 6.9 mph - N/A   Unknown
4:00 PM 72.3 °F 58.3 °F 61% 30.07 in - WSW 4.6 mph - N/A   Unknown
5:00 PM 74.8 °F 56.1 °F 52% 30.08 in - WNW 6.9 mph - N/A   Unknown
6:00 PM 71 °F 54 °F 44% 30.09 in - NW 6.9 mph - -  
6:00 PM 70.9 °F 53.6 °F 54% 30.09 in - NW 6.9 mph - N/A   Unknown
7:00 PM 61.3 °F 52.5 °F 73% 30.10 in - NW 5.8 mph - N/A   Unknown
8:00 PM 60.6 °F 52.3 °F 74% 30.12 in - NW 8.1 mph - N/A   Unknown
9:00 PM 60 °F 53 °F 69% 30.13 in - NW 8.1 mph - -  
9:00 PM 59.5 °F 52.5 °F 78% 30.13 in - NW 8.1 mph - N/A   Unknown
10:00 PM 58.1 °F 52.0 °F 80% 30.14 in - NW 9.2 mph - N/A   Unknown
11:00 PM 57.9 °F 52.2 °F 81% 30.14 in - NW 9.2 mph - N/A   Unknown